Location: Newark
(27.9675°N, 86.8869°E)
Time: 15:39:32
(UTC+00:00)

Vanguard 3 - Pass Details

Date: 23 October 2019
Orbit: 508 x 3263 km, 33.3° (Epoch: 12 November)

Event Time Altitude Azimuth Distance (km) Brightness Sun altitude
Rises 22:07:10 0° 284° (WNW) 2,829 - -29.5°
Reaches altitude 10° 22:09:08 10° 277° (W) 2,075 - -29.0°
Maximum altitude 22:13:38 47° 203° (SSW) 1,130 - -28.1°
Exits shadow 22:14:08 46° 187° (S) 1,182 7.8 -27.9°
Drops below altitude 10° 22:20:56 10° 132° (SE) 3,345 10.9 -26.4°
Sets 22:24:56 0° 127° (SE) 4,794 11.9 -25.6°
